This is the latest recevied weather packets stored in our database for station/object RN1M-13. If no packets are shown the sender has not sent any weather packets the latest 10 day(s).
| Time | Temp. | Humidity | Pressure | Rain* | Wind** | Luminosity | Snow |
|---|---|---|---|---|---|---|---|
| 1787427518 | 18.89° C | 100% | 1010.3 hPa | - | - | - | - |
| 1787426625 | 17.78° C | 100% | 1009.3 hPa | - | - | - | - |
| 1787425718 | 18.89° C | 100% | 1008.6 hPa | - | - | - | - |
| 1787424818 | 18.33° C | 100% | 1008.9 hPa | - | - | - | - |
| 1787423024 | 17.22° C | 100% | 1011.4 hPa | - | - | - | - |
| 1787422124 | 17.78° C | 100% | 1004.2 hPa | - | - | - | - |
| 1787421219 | 17.78° C | 100% | 1002.4 hPa | - | - | - | - |
| 1787420323 | 18.89° C | 100% | 1002.8 hPa | - | - | - | - |
| 1787419423 | 18.89° C | 100% | 1003.1 hPa | - | - | - | - |
| 1787418523 | 18.33° C | 100% | 1003.1 hPa | - | - | - | - |
| 1787417623 | 18.33° C | 100% | 1003.1 hPa | - | - | - | - |
| 1787416723 | 18.89° C | 100% | 1003.1 hPa | - | - | - | - |
| 1787415823 | 19.44° C | 100% | 1003.1 hPa | - | - | - | - |
| 1787414923 | 19.44° C | 100% | 1003.5 hPa | - | - | - | - |
| 1787414023 | 19.44° C | 100% | 1003.8 hPa | - | - | - | - |
| 1787413123 | 19.44° C | 100% | 1003.8 hPa | - | - | - | - |
| 1787412223 | 20° C | 100% | 1004 hPa | - | - | - | - |
| 1787411323 | 20° C | 100% | 1004.2 hPa | - | - | - | - |
| 1787410425 | 20° C | 100% | 1004 hPa | - | - | - | - |
| 1787409530 | 21.11° C | 100% | 1003.5 hPa | - | - | - | - |
| 1787408630 | 22.22° C | 100% | 1003.4 hPa | - | - | - | - |
| 1787407729 | 22.78° C | 100% | 1003.5 hPa | - | - | - | - |
| 1787406829 | 22.78° C | 100% | 1003.5 hPa | - | - | - | - |
| 1787405929 | 23.33° C | 100% | 1003.8 hPa | - | - | - | - |
| 1787405029 | 22.78° C | 100% | 1004.1 hPa | - | - | - | - |
* Rain since midnight (hover to see other rain measurements)
** Current wind speed in m/s (hover to see current wind gust speed)